Location: Appingedam
(53.3222°N, 6.8488°E)
Time: 12:29:41
(UTC+00:00)

CZ-2C R/B - Pass Details

Date: 15 May 2026
Orbit: 782 x 867 km, 98.4° (Epoch: 9 June)

Event Time Altitude Azimuth Distance (km) Brightness Sun altitude
Exits shadow 22:39:10 17° 123° (ESE) 1,942 4.2 -16.8°
Maximum altitude 22:42:44 38° 63° (ENE) 1,194 3.6 -16.9°
Drops below altitude 10° 22:47:31 10° 357° (N) 2,360 6.3 -17.1°
Sets 22:49:57 0° 349° (N) 3,288 7.6 -17.1°
